[[{"header":{"parameterUnit":"m.s-1","parameterCategory":1,"la1":30.2991,"la2":30.254,"lo1":-89.0895,"lo2":-89.0444,"dy":0.0017,"dx":0.0017,"nx":28,"ny":28,"refTime":"2024-04-22T09:00:00:Z","depth":0,"parameterNumber":2,"parameterNumberName":"U-component_of_WINDS"},"data":[0,0,0,0,0,0,0,0,0,0,0,0,0,0,0,0,0,0,0,0,0,0,0,0,0,0,0,0,0,0,0,0,0,0,0,0,0,0,0,0,0,0,0,0,0,0,0,0,0,0,0,0,0,0,0,0,0,0,-2.2161,-2.2162,0,-2.2244,-2.2245,-2.2246,-2.2204,-2.2202,-2.22,-2.2198,-2.2281,-2.2285,-2.229,0,0,0,0,0,0,0,0,0,0,0,0,0,-2.1967,-2.1971,-2.2161,-2.2162,-2.2163,-2.2243,-2.2245,-2.2246,-2.2205,-2.2202,-2.2199,-2.2197,-2.228,-2.2285,-2.229,0,0,0,0,0,0,0,0,0,0,0,0,0,-2.2051,-2.1972,-2.2161,-2.2153,-2.2153,-2.2243,-2.2245,-2.2246,-2.2205,-2.2202,-2.2199,-2.2196,-2.2278,-2.2284,-2.2291,-2.2394,0,0,-2.231,-2.2313,0,0,0,0,0,0,0,0,-2.2046,-2.2058,-2.2153,-2.2153,-2.2154,-2.221,-2.2207,-2.2296,-2.2206,-2.2185,-2.2198,-2.2194,-2.226,-2.2268,-2.229,-2.2398,-2.2402,-2.2311,-2.2314,-2.2317,-2.2319,0,0,0,0,0,0,0,-2.204,-2.2054,-2.2194,-2.2154,-2.2155,-2.2144,-2.2152,-2.2223,-2.224,-2.2187,-2.2184,-2.2194,-2.226,-2.2284,-2.2292,-2.2403,-2.231,-2.2316,-2.232,-2.2322,-2.2598,-2.2601,0,0,0,0,0,0,-2.2035,-2.2049,-2.2191,-2.2196,-2.2091,-2.215,-2.2159,-2.2195,-2.2239,-2.2242,-2.2197,-2.2192,-2.2275,-2.2285,-2.2295,-2.2417,-2.2317,-2.2323,-2.2327,-2.2594,-2.2598,-2.2602,0,0,0,0,0,0,-2.2031,-2.2048,-2.2188,-2.2122,-2.2139,-2.2157,-2.2198,-2.2199,-2.2223,-2.2247,-2.2249,-2.2219,-2.2273,-2.2286,-2.2369,-2.2419,-2.2326,-2.2332,-2.259,-2.2596,-2.26,-2.2664,0,0,0,0,0,0,-2.2026,-2.2047,-2.2087,-2.2123,-2.2143,-2.2262,-2.2201,-2.2203,-2.2234,-2.2229,-2.2268,-2.2271,-2.2271,-2.236,-2.2376,-2.2426,-2.2337,-2.2586,-2.2592,-2.2599,-2.2657,-2.267,-2.2682,0,0,0,0,0,-2.2019,-2.2102,-2.2089,-2.2106,-2.2193,-2.2265,-2.2276,-2.2274,-2.2239,-2.2278,-2.2293,-2.227,-2.2412,-2.2369,-2.2386,-2.244,-2.2582,-2.2591,-2.2598,-2.2651,-2.2668,-2.2681,0,0,0,0,0,0,-2.207,-2.2106,-2.2093,-2.219,-2.2225,-2.2258,-2.2308,-2.2292,-2.2337,-2.233,-2.2326,-2.2335,-2.2422,-2.2439,-2.2391,-2.2541,-2.2491,-2.2503,-2.2526,-2.2542,-2.2554,-2.2547,-2.2342,0,0,0,0,0,-2.2093,-2.2149,-2.2177,-2.226,-2.2278,-2.229,-2.2321,-2.2317,-2.2353,-2.2367,-2.2388,-2.2423,-2.2475,-2.251,-2.2559,-2.266,-2.2667,-2.2705,-2.2717,-2.2727,-2.2737,-2.2789,-2.2806,-2.2628,-2.2628,-2.2628,0,0,-2.214,-2.2167,-2.2202,-2.2271,-2.2297,-2.2354,-2.2303,-2.2365,-2.2407,-2.2377,-2.2456,-2.2473,-2.2512,-2.2604,-2.2645,-2.2621,-2.2788,-2.2738,-2.2745,-2.2749,-2.2799,-2.2816,-2.2831,-2.2634,-2.2633,-2.2632,0,0,-2.2255,-2.2282,-2.2353,-2.238,-2.2421,-2.2428,-2.2445,-2.2481,-2.2491,-2.2571,-2.2548,-2.2598,-2.2689,-2.2716,-2.2743,-2.2867,-2.2847,-2.2884,-2.2947,-2.2999,-2.3013,-2.3025,-2.3067,-2.3083,-2.2894,-2.2894,-2.2894,0,-2.2308,-2.2393,-2.2391,-2.2455,-2.2485,-2.2461,-2.2532,-2.2558,-2.2613,-2.2634,-2.2607,-2.2719,-2.2743,-2.284,-2.2871,-2.2894,-2.2912,-2.2878,-2.3011,-2.3023,-2.3035,-2.3075,-2.3091,-2.2898,-2.2897,-2.2897,-2.2897,0,-2.2456,-2.2515,-2.2568,-2.2621,-2.2657,-2.2725,-2.2732,-2.2769,-2.2761,-2.2772,-2.2852,-2.2881,-2.2935,-2.2958,-2.2952,-2.3055,-2.3038,-2.3011,-2.2961,-2.3056,-2.3093,-2.3109,-2.2904,-2.2902,-2.2901,-2.29,0,0,-2.2604,-2.2655,-2.2674,-2.2697,-2.274,-2.2785,-2.2851,-2.2904,-2.2935,-2.2974,-2.3028,-2.3105,-2.308,-2.3109,-2.3106,-2.3151,-2.3246,-2.3119,-2.3119,-2.3139,-2.3358,-2.3376,-2.3394,-2.3234,-2.3237,-2.3239,-2.3354,0,-2.272,-2.2835,-2.2835,-2.2941,-2.2995,-2.2972,-2.3029,-2.3061,-2.3073,-2.3119,-2.3132,-2.3185,-2.3149,-2.3167,-2.3211,-2.3225,-2.3289,-2.3217,-2.3282,-2.3284,-2.3271,-2.3414,-2.3434,-2.3541,-2.3369,-2.3371,-2.3373,0,-2.2871,-2.2914,-2.3025,-2.3059,-2.3081,-2.3133,-2.318,-2.3226,-2.3261,-2.3266,-2.3299,-2.3289,-2.3354,-2.3304,-2.3393,-2.3344,-2.3371,-2.3382,-2.3386,-2.339,-2.3333,-2.342,-2.3576,-2.3591,-2.3397,-2.3395,-2.3393,0,-2.2965,-2.3051,-2.3128,-2.3149,-2.3191,-2.3227,-2.3246,-2.3278,-2.331,-2.3352,-2.3371,-2.3421,-2.3447,-2.3485,-2.3488,-2.3451,-2.3578,-2.3528,-2.3582,-2.3582,-2.3608,-2.3606,-2.3768,-2.3629,-2.3629,-2.3629,-2.3628,0,-2.3093,-2.3161,-2.3171,-2.3218,-2.3293,-2.3292,-2.3367,-2.3383,-2.3412,-2.3461,-2.3445,-2.3492,-2.3493,-2.3541,-2.3544,-2.3616,-2.3629,-2.3634,-2.3633,-2.3634,-2.3633,-2.365,-2.3641,-2.3633,-2.3632,-2.3631,-2.3631,0,-2.321,-2.322,-2.3302,-2.3334,-2.3344,-2.3398,-2.3426,-2.347,-2.348,-2.3543,-2.3557,-2.3573,-2.3627,-2.3634,-2.3699,-2.37,-2.3787,-2.378,-2.3775,-2.3773,-2.3826,-2.382,-2.4002,-2.4025,-2.3874,-2.3876,-2.3877,0,-2.329,-2.3342,-2.338,-2.3412,-2.3433,-2.3485,-2.3516,-2.3518,-2.3551,-2.3595,-2.3634,-2.3687,-2.3729,-2.3818,-2.3834,-2.3883,-2.3875,-2.3936,-2.3883,-2.3881,-2.3874,-2.3869,-2.3874,-2.3946,-2.3947,-2.3949,-2.395,0,-2.343,-2.3432,-2.3479,-2.3527,-2.3565,-2.3603,-2.3639,-2.3666,-2.3671,-2.3709,-2.3765,-2.3798,-2.3863,-2.3916,-2.3964,-2.3982,-2.3967,-2.3967,-2.3981,-2.3981,-2.3975,-2.3977,-2.3801,-2.3962,-2.3961,-2.396,-2.3959,-2.3959,-2.353,-2.3574,-2.3607,-2.3659,-2.3686,-2.372,-2.3763,-2.3778,-2.3824,-2.3877,-2.3875,-2.3936,-2.3969,-2.4032,-2.4054,-2.4101,-2.4081,-2.4103,-2.4108,-2.4113,-2.4117,-2.397,-2.4111,-2.411,-2.411,-2.411,-2.4109,0,-2.3667,-2.3687,-2.3735,-2.3785,-2.3826,-2.3808,-2.3847,-2.3881,-2.3935,-2.3968,-2.401,-2.4073,-2.4124,-2.4144,-2.4194,-2.4227,-2.4221,-2.424,-2.4236,-2.424,-2.4134,-2.4115,-2.4244,-2.4244,-2.4244,-2.4244,-2.4244,-2.4244,-2.3743,-2.3816,-2.3822,-2.3908,-2.3928,-2.3987,-2.401,-2.4041,-2.4066,-2.4138,-2.418,-2.4193,-2.422,-2.4271,-2.4317,-2.4321,-2.4339,-2.4361,-2.4362,-2.4262,-2.4248,-2.4235,-2.4217,-2.4365,-2.4366,-2.4464,-2.4465,-2.4466]},{"header":{"parameterUnit":"m.s-1","parameterCategory":1,"la1":30.2991,"la2":30.254,"lo1":-89.0895,"lo2":-89.0444,"dy":0.0017,"dx":0.0017,"nx":28,"ny":28,"refTime":"2024-04-22T09:00:00:Z","depth":0,"parameterNumber":3,"parameterNumberName":"V-component_of_WINDS"},"data":[0,0,0,0,0,0,0,0,0,0,0,0,0,0,0,0,0,0,0,0,0,0,0,0,0,0,0,0,0,0,0,0,0,0,0,0,0,0,0,0,0,0,0,0,0,0,0,0,0,0,0,0,0,0,0,0,0,0,-2.6358,-2.6359,0,-2.6425,-2.6426,-2.6427,-2.6407,-2.6406,-2.6405,-2.6403,-2.647,-2.6473,-2.6476,0,0,0,0,0,0,0,0,0,0,0,0,0,-2.6211,-2.6214,-2.6358,-2.6359,-2.636,-2.6425,-2.6426,-2.6427,-2.6408,-2.6406,-2.6404,-2.6403,-2.6469,-2.6473,-2.6477,0,0,0,0,0,0,0,0,0,0,0,0,0,-2.6276,-2.6215,-2.6358,-2.6358,-2.6359,-2.6425,-2.6426,-2.6427,-2.6408,-2.6406,-2.6404,-2.6402,-2.6468,-2.6473,-2.6477,-2.6547,0,0,-2.6491,-2.6493,0,0,0,0,0,0,0,0,-2.6272,-2.6282,-2.6357,-2.6358,-2.6359,-2.6406,-2.6399,-2.6467,-2.6409,-2.6389,-2.6403,-2.6401,-2.6451,-2.6456,-2.6473,-2.655,-2.6553,-2.6492,-2.6494,-2.6496,-2.6498,0,0,0,0,0,0,0,-2.6268,-2.6279,-2.6384,-2.6358,-2.6359,-2.6354,-2.6361,-2.6411,-2.6431,-2.6391,-2.639,-2.6398,-2.6451,-2.6469,-2.6475,-2.6554,-2.6492,-2.6496,-2.6498,-2.65,-2.6688,-2.669,0,0,0,0,0,0,-2.6263,-2.6275,-2.6382,-2.6386,-2.631,-2.6358,-2.6366,-2.6393,-2.643,-2.6434,-2.64,-2.6397,-2.6462,-2.647,-2.6477,-2.6559,-2.6496,-2.6501,-2.6503,-2.6686,-2.6689,-2.6691,0,0,0,0,0,0,-2.626,-2.6273,-2.638,-2.633,-2.6344,-2.6363,-2.6393,-2.6395,-2.6414,-2.6437,-2.644,-2.6415,-2.6461,-2.6471,-2.6529,-2.6562,-2.6503,-2.6507,-2.6683,-2.6687,-2.669,-2.6725,0,0,0,0,0,0,-2.6256,-2.6272,-2.6299,-2.6331,-2.6346,-2.6431,-2.6395,-2.6398,-2.6422,-2.6419,-2.6452,-2.6455,-2.646,-2.6522,-2.6534,-2.6567,-2.6511,-2.668,-2.6685,-2.6689,-2.6721,-2.673,-2.6737,0,0,0,0,0,-2.6251,-2.6306,-2.6301,-2.6314,-2.6381,-2.6433,-2.6442,-2.6446,-2.6425,-2.6451,-2.6466,-2.6454,-2.6556,-2.6529,-2.6541,-2.6576,-2.6678,-2.6684,-2.6688,-2.6718,-2.6728,-2.6736,0,0,0,0,0,0,-2.6277,-2.6311,-2.6305,-2.6372,-2.64,-2.643,-2.6464,-2.6457,-2.6491,-2.6487,-2.6491,-2.6498,-2.6558,-2.6573,-2.6541,-2.6644,-2.6614,-2.6622,-2.6632,-2.6642,-2.6649,-2.6644,-2.6514,0,0,0,0,0,-2.6291,-2.6332,-2.6358,-2.6416,-2.643,-2.6445,-2.6468,-2.6469,-2.6498,-2.6509,-2.6528,-2.6556,-2.6594,-2.6619,-2.6655,-2.6724,-2.673,-2.6754,-2.6761,-2.6767,-2.6774,-2.681,-2.682,-2.6708,-2.6708,-2.6707,0,0,-2.632,-2.6343,-2.6369,-2.6422,-2.6443,-2.6484,-2.6455,-2.65,-2.6529,-2.6516,-2.6572,-2.6587,-2.6618,-2.6681,-2.671,-2.6695,-2.6806,-2.6774,-2.6779,-2.6782,-2.6816,-2.6827,-2.6836,-2.6711,-2.671,-2.671,0,0,-2.6393,-2.6416,-2.6465,-2.6487,-2.652,-2.653,-2.6541,-2.6572,-2.6582,-2.6638,-2.6628,-2.6663,-2.673,-2.6752,-2.6772,-2.6852,-2.6842,-2.6864,-2.6903,-2.6938,-2.6947,-2.6955,-2.6982,-2.6992,-2.687,-2.687,-2.6871,0,-2.6425,-2.6487,-2.6491,-2.6537,-2.656,-2.6549,-2.6599,-2.662,-2.6663,-2.6679,-2.6662,-2.6744,-2.6764,-2.6832,-2.6851,-2.6868,-2.6881,-2.686,-2.6945,-2.6953,-2.6961,-2.6987,-2.6997,-2.6873,-2.6873,-2.6872,-2.6872,0,-2.6523,-2.6566,-2.6602,-2.6644,-2.6671,-2.6718,-2.6729,-2.6756,-2.6754,-2.6765,-2.6822,-2.6846,-2.6886,-2.6902,-2.6902,-2.697,-2.696,-2.6944,-2.6914,-2.6974,-2.6998,-2.7008,-2.6876,-2.6875,-2.6875,-2.6874,0,0,-2.6615,-2.6658,-2.6671,-2.669,-2.6725,-2.6758,-2.6804,-2.6844,-2.6866,-2.6896,-2.6934,-2.699,-2.6975,-2.6998,-2.6999,-2.703,-2.7091,-2.7011,-2.7012,-2.7024,-2.7166,-2.7176,-2.7188,-2.7085,-2.7087,-2.7088,-2.7163,0,-2.669,-2.6772,-2.6777,-2.6851,-2.6889,-2.688,-2.692,-2.6945,-2.6956,-2.699,-2.7002,-2.7041,-2.702,-2.7033,-2.7063,-2.7077,-2.7119,-2.7072,-2.7119,-2.7121,-2.7111,-2.7201,-2.7213,-2.7282,-2.7172,-2.7174,-2.7175,0,-2.6789,-2.6822,-2.69,-2.6928,-2.6945,-2.6981,-2.7017,-2.705,-2.7078,-2.7084,-2.7109,-2.7106,-2.7152,-2.712,-2.7183,-2.7151,-2.717,-2.718,-2.7183,-2.7187,-2.7151,-2.7206,-2.7304,-2.7314,-2.7191,-2.719,-2.7188,0,-2.6847,-2.691,-2.6965,-2.6981,-2.7016,-2.7041,-2.7057,-2.7083,-2.7107,-2.7138,-2.7153,-2.7189,-2.7209,-2.7237,-2.7243,-2.722,-2.7306,-2.7275,-2.7311,-2.7311,-2.7329,-2.7327,-2.743,-2.7343,-2.7343,-2.7343,-2.7343,0,-2.693,-2.6977,-2.6991,-2.7024,-2.7077,-2.7082,-2.7133,-2.7147,-2.717,-2.7205,-2.7199,-2.7232,-2.7239,-2.7273,-2.7278,-2.7329,-2.7338,-2.7343,-2.7344,-2.7343,-2.7342,-2.7355,-2.735,-2.7346,-2.7345,-2.7344,-2.7344,0,-2.7003,-2.7014,-2.7072,-2.7101,-2.7109,-2.7146,-2.717,-2.7201,-2.7212,-2.7256,-2.7267,-2.7282,-2.7322,-2.7331,-2.7379,-2.7382,-2.7441,-2.7438,-2.7432,-2.7431,-2.7466,-2.7462,-2.758,-2.7595,-2.7499,-2.75,-2.7501,0,-2.7055,-2.7091,-2.7123,-2.7146,-2.7163,-2.7201,-2.7224,-2.723,-2.7254,-2.7289,-2.7316,-2.7355,-2.7386,-2.745,-2.7465,-2.7501,-2.7497,-2.7536,-2.7503,-2.75,-2.7496,-2.7494,-2.7497,-2.7542,-2.7543,-2.7544,-2.7545,0,-2.7145,-2.7148,-2.7183,-2.7219,-2.7247,-2.7276,-2.7304,-2.7323,-2.7332,-2.736,-2.74,-2.7425,-2.7473,-2.7511,-2.7547,-2.7562,-2.7555,-2.7555,-2.7565,-2.7564,-2.7559,-2.7561,-2.7448,-2.7552,-2.7552,-2.7551,-2.7551,-2.755,-2.7208,-2.7239,-2.7266,-2.7305,-2.7326,-2.7351,-2.7382,-2.7396,-2.743,-2.7469,-2.7471,-2.7514,-2.754,-2.7588,-2.7605,-2.7639,-2.7627,-2.7641,-2.7645,-2.7648,-2.7651,-2.7554,-2.7645,-2.7645,-2.7645,-2.7645,-2.7645,0,-2.7297,-2.7314,-2.7349,-2.7387,-2.7417,-2.7408,-2.7437,-2.7463,-2.7501,-2.7527,-2.7558,-2.7603,-2.764,-2.7658,-2.7695,-2.7718,-2.7716,-2.7727,-2.7725,-2.7729,-2.766,-2.7647,-2.7729,-2.7729,-2.7729,-2.7729,-2.7729,-2.7729,-2.7346,-2.7398,-2.7405,-2.7467,-2.7483,-2.7526,-2.7544,-2.7567,-2.7587,-2.7638,-2.7669,-2.7681,-2.7703,-2.774,-2.7773,-2.7778,-2.7791,-2.7804,-2.7806,-2.7742,-2.7733,-2.7725,-2.7713,-2.7807,-2.7807,-2.7872,-2.7873,-2.7873]}]]